Location: Newark
(50.0821°N, 8.2414°E)
Time: 15:46:09
(UTC+00:00)

Envisat - Pass Details

Date: 27 August 2019
Orbit: 764 x 766 km, 98.1° (Epoch: 18 October)

Event Time Altitude Azimuth Distance (km) Brightness Sun altitude
Rises 19:16:07 0° 222° (SW) 3,225 6.4 -8.8°
Reaches altitude 10° 19:20:03 10° 253° (WSW) 2,306 6.2 -9.4°
Maximum altitude 19:21:57 12° 276° (W) 2,171 6.5 -9.6°
Drops below altitude 10° 19:23:53 10° 298° (WNW) 2,313 7.2 -9.9°
Sets 19:27:51 0° 329° (NNW) 3,247 7.4 -10.5°
